Tracking 31027 objects as of 19-Jul-2025
HD Live streaming from Space Station
objects crossing your sky now

STARLINK-6230

Track STARLINK-6230 now!
10-day predictions
STARLINK-6230 is classified as:


NORAD ID: 57228
Int'l Code: 2023-094L
Perigee: 565.3 km
Apogee: 567.1 km
Inclination: 43.0 °
Period: 95.8 minutes
Semi major axis: 6937 km
RCS: Unknown
Launch date: July 7, 2023
Source: United States (US)
Launch site: AIR FORCE WESTERN TEST RANGE (AFWTR)
Your satellite tracking list
STARLINK-5403
Track 1 satellite(s)




NASA's NSSDC Master Catalog

Two Line Element Set (TLE):
1 57228U 23094L   25199.38064972 -.00000392  00000-0 -13980-4 0  9998
2 57228  43.0029 223.5142 0001315 280.6388  79.4306 15.02531764111879
Source of the keplerian elements: AFSPC